Temp
60 58 58 57 56 55 54 55 55 54 54 54 56 56 55 54 51 51 51 51 52 51
58 56 55 54 54 53 50 46 43 41 41 45 47 50 50 47 47 47 47 49 49 49
56 55 54 52 45 40 38 38 37 36 36 37 40 40 39 40 42 39 40 43 45 46
54 53 49 42 38 37 37 38 37 37 36 35 34 35 34 33 35 35 36 38 38 41
51 47 42 39 38 39 39 40 39 39 38 35 36 36 34 33 34 34 34 34 35 35
45 42 39 40 41 41 40 40 40 40 38 36 36 36 36 34 35 35 34 34 33 34
42 40 40 40 39 40 41 39 39 38 37 35 35 35 36 36 36 35 35 34 35 35
41 41 41 40 42 41 39 38 37 36 35 34 34 34 34 36 37 35 35 35 37 37
42 42 41 42 40 40 40 37 38 36 36 35 33 35 35 34 34 34 34 33 37 36
41 40 40 40 40 40 37 38 35 36 35 34 34 35 35 36 34 33 33 33 36 37
40 39 38 38 38 39 38 38 37 36 35 34 34 35 35 35 35 35 35 34 34 37
39 37 36 36 37 38 39 39 37 37 36 34 33 35 36 38 38 36 35 36 37 39
38 37 36 37 38 38 41 39 38 37 37 35 35 35 38 40 38 34 34 36 37 36
38 36 37 39 39 39 39 39 38 37 37 37 37 38 38 39 40 37 35 34 34 37
MSLP
1016.31 1016.03 1015.71 1015.45 1015.34 1015.16 1014.80 1014.57 1014.44 1014.28 1014.18 1013.95 1013.75 1013.97 1014.44 1014.90 1015.28 1015.65 1015.98 1016.47 1016.80 1017.19
1015.97 1015.81 1015.67 1015.49 1015.40 1015.12 1015.12 1015.26 1015.31 1015.45 1015.30 1014.66 1014.27 1014.08 1014.28 1014.83 1015.30 1015.57 1015.84 1016.11 1016.70 1017.17
1015.88 1015.67 1015.58 1015.57 1015.87 1016.38 1016.22 1015.97 1015.76 1015.58 1015.44 1015.21 1014.91 1014.84 1014.94 1015.09 1015.32 1015.86 1016.37 1016.45 1016.64 1017.36
1015.63 1015.50 1015.86 1016.48 1016.50 1016.20 1015.85 1015.51 1015.19 1014.94 1014.78 1014.75 1014.80 1014.80 1015.04 1015.31 1015.41 1016.02 1016.20 1016.47 1016.75 1017.47
1015.83 1016.13 1016.51 1016.31 1015.93 1015.49 1015.00 1014.64 1014.37 1014.10 1013.88 1013.90 1013.95 1014.11 1014.33 1014.54 1014.62 1015.15 1015.62 1016.23 1016.60 1017.19
1016.48 1016.37 1016.17 1015.77 1015.27 1014.78 1014.34 1013.88 1013.51 1013.23 1012.96 1013.01 1013.13 1013.27 1013.51 1013.84 1014.22 1014.68 1015.20 1015.77 1016.33 1016.94
1016.43 1016.36 1015.89 1015.45 1014.95 1014.36 1013.75 1013.26 1012.82 1012.41 1012.17 1012.13 1012.26 1012.46 1012.79 1013.13 1013.62 1014.11 1014.56 1015.11 1015.79 1016.42
1016.65 1016.21 1015.74 1015.10 1014.33 1013.87 1013.56 1013.04 1012.47 1011.97 1011.59 1011.34 1011.31 1011.59 1012.15 1012.55 1012.97 1013.67 1014.29 1014.91 1015.60 1016.15
1016.65 1016.08 1015.45 1014.78 1014.41 1013.94 1013.34 1012.97 1012.28 1011.73 1011.19 1010.71 1010.72 1011.11 1011.78 1012.41 1012.80 1013.50 1014.10 1014.70 1015.25 1016.07
1016.84 1016.20 1015.65 1015.20 1014.58 1013.85 1013.50 1012.88 1012.49 1011.93 1011.42 1011.06 1011.00 1011.41 1011.94 1012.46 1013.01 1013.64 1014.25 1014.79 1015.18 1015.71
1017.19 1016.66 1016.21 1015.64 1015.02 1014.38 1013.83 1013.09 1012.86 1012.58 1012.22 1011.88 1011.93 1012.20 1012.56 1013.00 1013.49 1014.05 1014.55 1014.85 1015.31 1015.82
1017.81 1017.28 1016.73 1016.10 1015.43 1014.93 1014.23 1013.74 1013.64 1013.39 1013.16 1012.99 1013.15 1013.29 1013.47 1013.47 1013.85 1014.50 1015.05 1015.38 1015.45 1016.10
1018.50 1017.91 1017.26 1016.57 1015.97 1015.53 1014.84 1014.66 1014.48 1014.24 1014.13 1014.18 1014.07 1014.18 1014.13 1014.00 1014.42 1015.01 1015.47 1016.04 1016.43 1017.01
1019.04 1018.45 1017.82 1017.02 1016.51 1016.02 1015.60 1015.42 1015.32 1015.17 1015.13 1015.03 1014.95 1014.91 1014.86 1014.65 1015.04 1015.46 1015.95 1016.41 1017.24 1017.83
Wind_Speed
16 12 12 13 12 12 12 13 15 14 15 15 15 13 13 10 10 12 12 14 11 7
14 14 14 16 15 12 15 13 14 15 15 14 12 11 11 8 9 8 9 12 12 9
16 15 15 14 16 14 12 10 10 12 11 10 11 7 5 7 7 6 6 8 10 11
14 14 13 13 11 11 12 12 12 12 11 10 9 8 9 10 9 12 13 9 8 11
12 13 14 12 12 12 12 11 11 12 12 10 9 9 9 8 10 13 11 10 10 8
15 14 13 13 13 13 12 12 11 12 10 8 9 10 10 11 9 10 10 10 10 10
15 13 12 11 11 11 11 11 10 9 9 9 9 9 9 10 10 10 9 9 12 13
13 12 10 10 10 10 10 8 8 7 6 7 7 7 8 9 10 10 9 10 12 11
13 13 12 12 12 11 10 11 10 7 6 4 3 11 12 9 6 9 9 10 11 11
13 13 13 12 12 13 12 9 10 9 8 6 6 11 12 12 8 10 8 8 10 9
14 13 13 13 13 13 11 10 10 10 9 9 8 15 16 15 11 10 8 7 6 11
14 13 13 12 12 11 11 11 11 10 12 11 10 15 14 11 11 12 8 8 11 12
13 12 12 11 10 9 9 11 10 11 12 14 10 11 8 11 9 11 7 8 9 14
13 12 11 10 9 9 8 11 10 12 13 11 11 11 10 10 11 7 8 6 10 8
Wind_Direction
306 300 301 300 305 298 291 288 286 282 280 278 265 246 230 233 233 227 217 226 222 225
308 310 304 307 306 307 325 331 324 320 318 310 304 280 260 241 249 246 242 214 213 213
318 314 315 322 338 317 307 298 289 281 277 286 272 273 299 260 237 252 253 227 210 206
321 329 347 332 303 288 284 281 278 274 258 254 243 247 245 245 229 225 214 221 181 200
344 350 325 306 299 293 287 281 276 269 259 243 234 225 216 209 204 203 209 205 199 205
339 324 319 315 311 307 298 289 283 274 264 242 232 229 219 215 202 198 203 197 190 186
342 335 327 321 311 307 308 308 296 283 268 240 231 224 216 205 202 197 186 172 174 182
344 340 334 319 323 345 339 324 326 312 289 260 227 198 200 210 194 184 177 169 183 190
349 345 347 349 353 350 352 345 339 335 325 303 189 174 179 172 164 155 159 166 169 181
353 353 354 355 355 2 5 346 14 11 10 42 86 143 144 139 136 143 145 157 176 155
356 359 358 358 358 4 352 30 34 34 37 55 77 100 108 111 119 125 116 125 132 159
2 1 357 354 0 12 12 38 42 47 54 64 80 96 116 122 121 120 116 109 115 132
2 1 355 1 9 11 35 45 53 56 65 66 65 75 107 119 112 124 120 129 120 116
8 6 1 7 12 15 39 61 55 60 59 63 68 71 74 96 113 105 108 114 129 116